Temperature
24 23 23 23 21 20 23 24 26 26 26 27 27 26 25 24 23 21 22 22 22 22 21 21 21 21 20 20 20 20 19 19 19 19 19 19 18 18 18 18 18 18 18 18 18 18 18 18 18
24 24 23 22 20 21 23 25 26 26 27 27 26 25 24 23 23 22 21 22 22 22 22 21 21 21 20 20 20 20 19 19 19 19 19 19 18 18 18 18 18 18 18 18 18 18 18 18 18
24 24 23 20 21 22 24 25 26 27 27 27 26 25 24 23 22 22 22 22 22 22 22 21 21 21 20 20 20 20 19 19 19 19 19 19 19 19 19 18 18 18 18 18 18 18 18 18 18
24 23 23 21 23 23 25 26 27 27 27 27 26 24 24 23 23 23 22 22 22 22 21 21 21 21 20 20 20 20 20 19 19 19 19 19 19 18 19 18 18 18 18 18 18 18 18 18 18
24 23 21 21 23 25 26 27 27 27 27 26 25 23 23 23 23 23 22 22 22 22 21 21 21 20 20 20 20 20 19 19 19 19 19 19 19 19 19 19 18 18 18 18 18 18 18 18 18
24 21 21 21 24 25 26 27 27 26 26 25 24 23 22 23 23 23 22 22 22 22 21 21 21 20 20 20 20 20 19 19 19 19 19 19 19 19 19 18 18 18 18 18 18 18 18 18 18
23 20 21 23 24 25 26 27 27 26 26 26 25 23 22 22 23 22 22 22 22 22 21 21 21 20 20 20 20 19 19 19 19 19 19 19 19 19 18 18 18 18 18 18 18 18 18 18 18
25 20 22 23 24 25 27 27 27 27 26 26 25 23 22 22 22 22 22 22 22 22 21 21 21 20 20 20 19 19 19 19 19 19 19 19 19 19 18 18 18 18 18 18 18 18 18 18 18
25 20 21 23 24 25 27 26 27 27 27 26 26 25 24 23 22 22 22 22 21 21 21 21 21 20 20 20 19 19 19 19 19 19 19 19 19 19 18 18 18 18 18 18 18 18 18 18 18
24 20 22 24 25 26 26 27 27 27 26 25 25 24 24 23 22 22 22 22 21 21 21 21 21 20 20 20 20 19 19 19 19 19 19 18 18 18 18 18 18 18 18 18 18 18 18 18 17
24 23 24 25 27 27 27 27 27 26 25 25 24 24 23 23 22 22 22 22 22 22 21 21 21 20 20 20 20 19 19 19 19 18 18 18 18 18 18 18 18 18 18 18 18 18 18 18 17
24 24 25 27 28 27 27 27 27 27 26 26 26 25 24 23 23 23 22 22 22 21 21 21 20 20 20 20 20 19 19 19 19 18 18 18 18 18 18 18 18 18 18 18 18 18 18 18 17
23 24 26 27 27 28 27 27 27 27 27 26 25 24 24 23 23 23 23 22 22 21 21 21 21 20 20 19 19 19 19 19 19 18 18 18 18 18 18 18 18 18 18 18 18 17 18 17 17
24 25 26 27 27 27 26 26 26 26 26 25 24 24 24 23 23 23 22 22 22 22 21 21 21 20 20 20 19 19 19 19 19 18 18 18 18 18 18 18 18 18 18 18 18 17 17 17 17
25 24 24 25 26 27 26 25 25 26 26 25 24 24 24 23 23 23 23 22 22 22 21 21 21 20 20 20 19 19 19 19 18 18 18 18 18 18 18 18 18 18 18 18 18 17 17 17 17
23 23 23 24 26 26 25 24 25 26 26 25 24 24 24 23 23 23 23 23 22 22 21 21 20 20 20 20 19 19 19 18 18 18 18 18 18 18 18 18 18 18 17 17 17 17 17 17 17
22 21 22 24 26 26 25 24 25 26 26 25 24 24 24 23 23 23 23 23 22 22 21 21 20 20 20 20 19 19 18 18 18 18 18 18 18 18 18 17 17 17 17 17 17 17 17 17 17
21 22 23 23 25 25 25 24 24 26 25 24 24 24 23 23 23 23 23 23 22 22 21 21 20 20 20 19 19 18 18 18 18 18 18 18 17 17 17 17 17 17 17 17 17 17 17 17 17
22 22 22 24 25 25 24 24 24 25 25 24 23 23 23 23 23 23 23 22 22 22 21 21 20 20 20 19 19 18 18 18 18 18 17 17 17 17 17 17 17 17 17 17 17 17 17 17 17
22 22 22 23 25 25 24 24 24 24 24 24 23 23 22 22 22 22 22 22 22 21 21 21 20 20 19 19 19 19 18 18 18 18 17 17 17 17 17 17 17 17 17 17 17 17 17 17 17
23 22 23 23 24 24 24 23 23 24 24 24 23 23 23 22 22 21 21 21 21 21 21 20 20 20 19 19 18 18 18 18 18 17 17 17 17 17 17 17 17 17 17 17 17 17 17 16 16
22 23 24 24 23 21 23 21 22 22 22 22 22 22 22 22 21 21 21 21 21 21 20 20 20 19 19 19 18 18 18 18 18 18 17 17 17 17 17 17 17 17 17 17 16 16 16 16 16
23 24 24 24 22 21 22 21 21 21 21 21 21 22 22 22 21 21 21 21 20 20 20 20 19 19 18 18 18 18 18 18 17 17 17 17 17 17 17 17 17 17 16 16 16 16 16 16 16
24 24 22 20 19 20 21 21 20 20 21 21 21 22 22 21 21 21 21 20 20 20 19 19 19 18 18 18 18 17 17 17 17 17 17 17 17 17 17 16 16 16 16 16 16 16 16 16 16
23 20 19 19 18 19 21 20 19 20 21 21 21 21 21 21 21 20 20 20 20 19 19 19 19 18 18 17 17 17 17 17 17 17 17 17 17 17 17 16 16 16 16 16 16 16 16 16 16
22 20 19 19 19 19 21 20 20 21 21 22 21 21 21 21 20 20 20 20 20 19 19 19 19 18 18 17 17 17 17 17 17 17 16 16 17 17 17 16 16 16 16 16 16 16 16 16 16
22 20 19 18 19 19 19 20 20 20 20 20 20 20 20 20 20 20 19 19 19 19 19 18 18 18 17 17 17 17 16 16 16 16 16 16 16 16 16 16 16 16 16 16 16 16 15 15 15
22 21 18 18 19 19 20 19 19 20 19 19 19 19 19 19 20 19 19 19 19 19 19 18 18 18 17 17 17 16 16 16 16 16 16 16 16 16 16 16 16 16 16 15 15 15 15 15 15
21 21 18 16 17 18 19 18 20 19 18 18 18 19 19 19 19 19 19 19 18 18 18 18 17 17 17 17 16 16 16 16 16 16 16 16 16 16 16 16 16 15 15 15 15 15 15 15 15
22 20 18 18 18 17 17 18 20 19 18 18 18 18 19 19 19 19 18 18 17 17 17 17 17 17 17 16 16 16 16 16 16 16 15 15 15 15 15 15 15 15 15 15 15 15 15 15 15
Wind_Speed
3 3 2 2 4 5 1 2 1 4 5 7 9 10 10 7 5 6 4 14 15 13 12 15 15 14 15 15 15 15 14 14 14 13 14 13 13 13 13 13 13 13 13 13 12 12 12 12 12
2 2 2 4 5 3 2 1 4 5 7 8 10 11 9 8 8 10 7 13 15 13 12 14 16 15 16 15 15 14 14 14 13 13 13 13 13 13 13 12 12 12 12 12 12 11 11 11 11
2 2 3 4 2 3 3 2 4 5 7 7 6 7 6 7 9 7 10 17 14 12 12 15 17 16 16 15 15 14 14 13 13 13 13 13 12 12 12 12 12 11 11 10 10 10 10 10 10
1 3 4 3 2 5 4 3 4 6 6 7 9 7 5 5 6 10 17 18 15 11 12 15 17 17 16 15 14 14 13 13 13 13 12 12 12 11 11 11 11 10 10 10 9 9 9 9 8
3 4 4 3 4 3 3 4 5 5 4 7 11 8 5 4 14 19 18 17 15 11 11 14 16 16 15 14 13 13 13 12 12 12 11 11 11 10 11 11 10 10 10 9 9 8 8 8 8
4 4 3 3 4 2 2 3 6 7 8 8 10 9 4 7 15 16 16 15 14 13 10 13 16 16 15 14 13 13 12 12 12 11 11 11 10 10 10 10 9 9 9 9 8 8 8 7 7
3 2 2 4 3 2 2 2 6 6 7 6 9 8 5 6 11 14 14 14 13 12 10 9 12 13 14 14 13 12 11 11 11 11 11 10 10 9 9 9 9 8 8 7 7 7 7 6 6
5 3 2 3 2 3 1 2 3 5 5 8 8 10 8 10 12 14 13 12 11 10 8 7 8 9 10 11 12 11 11 10 10 10 10 10 9 8 8 7 7 7 7 7 6 6 6 5 5
3 3 3 5 4 3 2 3 1 2 7 5 4 8 13 17 17 15 13 10 9 9 7 7 7 7 8 9 10 11 11 10 9 9 9 8 6 6 6 6 6 6 6 5 5 5 5 4 4
4 4 8 6 4 3 2 3 3 3 7 6 8 11 16 16 17 17 15 12 11 10 8 7 7 6 7 7 8 7 7 8 7 7 7 6 6 5 5 6 6 6 5 4 5 5 4 3 3
4 6 7 7 6 4 3 2 1 6 5 10 15 18 17 16 15 15 14 14 12 12 10 8 8 7 6 4 6 5 5 5 6 6 7 6 5 4 4 4 3 3 3 3 3 3 3 3 3
4 7 6 6 6 3 3 2 1 4 7 12 18 20 18 16 14 14 14 12 11 11 10 9 8 7 5 5 4 4 3 3 4 5 6 6 4 3 3 3 3 3 2 2 2 2 3 3 4
5 7 8 7 5 4 3 3 3 4 8 12 16 17 17 16 13 11 12 12 11 11 10 10 9 8 5 4 4 4 3 4 5 5 6 6 4 4 3 2 3 3 3 2 2 2 2 3 3
6 5 7 6 5 4 4 3 2 5 12 15 16 15 15 14 13 11 11 11 11 12 11 10 10 9 7 5 4 4 4 4 5 5 6 7 6 4 3 2 2 2 3 3 3 3 2 2 2
3 5 8 6 4 3 2 2 5 9 12 14 14 15 14 13 13 13 13 12 12 12 11 11 10 9 8 6 4 4 4 5 3 4 6 7 7 6 4 3 2 2 3 4 3 2 3 3 3
4 3 5 8 4 4 5 5 7 9 12 12 12 13 13 12 13 13 13 12 11 11 11 11 10 9 8 7 5 4 4 4 3 4 5 6 7 7 5 3 3 3 3 3 3 3 3 2 2
3 3 6 9 5 3 3 5 7 8 12 12 13 13 13 11 10 10 12 12 12 12 12 10 9 9 8 7 5 4 4 4 4 4 4 5 6 6 5 3 3 4 3 2 3 3 3 2 2
6 5 6 8 6 2 3 6 8 8 11 13 13 12 12 13 11 11 11 11 11 10 11 10 9 8 7 5 4 3 4 3 3 4 4 5 5 6 5 3 3 3 3 2 3 3 2 2 2
6 6 9 10 8 3 6 7 9 8 8 10 11 11 11 11 9 9 10 11 10 9 9 10 10 8 7 5 5 4 3 3 2 2 4 5 5 6 4 3 3 3 4 3 3 3 2 1 1
7 8 9 9 7 3 5 5 5 6 8 11 13 12 12 9 8 9 9 10 10 9 9 9 9 9 8 6 5 4 4 2 3 2 2 4 5 5 5 4 3 3 3 3 3 3 2 1 1
8 8 8 8 6 3 0 4 3 2 2 6 10 11 13 14 13 11 10 10 10 10 10 9 9 9 8 7 5 4 3 2 1 1 1 2 4 5 4 4 3 3 3 3 3 3 3 2 0
8 9 8 6 2 4 1 2 6 2 2 5 7 9 11 12 12 11 11 10 10 9 9 8 9 8 7 8 7 8 6 4 4 3 2 2 3 4 4 4 4 3 3 3 3 3 3 3 1
9 8 6 5 2 2 2 2 6 1 3 5 7 10 12 12 13 12 11 10 9 8 8 7 8 7 7 7 8 7 5 3 3 3 3 2 2 2 3 4 3 3 3 3 3 2 3 2 3
6 2 3 3 4 2 5 4 4 4 6 6 6 9 10 10 10 10 9 8 7 6 6 7 7 6 6 7 6 6 6 6 5 4 4 3 1 1 2 2 2 3 3 3 3 3 3 2 2
1 4 3 4 3 5 4 3 5 5 4 7 9 8 8 9 9 9 9 9 8 8 7 7 8 6 5 6 6 6 6 6 7 5 5 4 3 2 3 3 3 3 3 3 2 2 2 2 2
4 9 8 5 5 4 2 3 4 2 1 4 7 8 8 8 8 8 8 8 9 9 8 8 8 7 6 6 5 5 5 4 4 4 4 4 3 3 3 3 3 3 3 3 2 2 2 2 2
3 4 8 7 2 0 2 1 3 3 4 4 6 7 7 7 8 8 8 8 8 8 7 8 8 7 6 6 6 5 5 4 4 4 4 3 2 2 2 3 3 3 3 3 2 2 2 2 2
5 5 5 5 3 2 3 2 3 2 1 3 5 7 6 6 7 7 8 8 7 6 6 6 7 7 6 6 5 5 4 4 4 4 4 3 3 2 2 2 3 3 3 3 2 2 2 2 2
1 2 4 4 5 5 3 5 5 7 6 5 5 6 7 7 7 6 7 8 8 7 7 6 5 5 5 5 4 4 3 3 3 3 3 3 3 3 3 3 3 3 3 3 2 3 2 2 2
6 5 6 4 3 4 4 5 4 5 6 7 6 4 5 6 6 7 8 7 7 7 7 6 6 5 5 5 5 5 4 4 3 3 3 3 3 3 3 3 3 3 3 3 3 4 3 3 3
Wind_Direction
239 219 146 66 47 47 356 264 149 62 40 61 81 90 92 78 106 133 141 140 137 141 142 138 132 128 124 120 118 115 111 108 106 105 106 105 104 105 109 115 117 118 119 118 118 119 118 118 118
225 192 74 55 71 50 302 240 75 88 119 101 77 80 79 71 87 114 123 141 138 138 139 138 134 130 127 124 123 121 117 114 111 110 109 110 109 108 110 115 119 121 121 122 122 122 121 120 119
256 186 84 65 96 171 206 202 132 112 113 99 82 59 72 100 111 128 143 143 135 134 138 140 136 134 131 128 127 126 123 121 118 115 112 111 111 110 110 114 118 121 124 125 125 126 124 121 119
60 48 48 66 250 231 200 203 133 103 80 83 96 69 58 90 120 132 136 137 133 133 139 141 139 137 134 132 132 131 130 128 124 120 117 115 114 112 113 116 120 126 128 129 130 132 132 127 123
66 70 46 345 277 271 198 175 132 118 99 99 96 93 68 60 112 128 136 138 134 136 140 143 141 139 136 134 133 134 134 132 129 124 121 119 118 117 117 119 121 127 133 134 135 136 136 134 129
40 65 66 297 290 281 235 147 114 115 117 113 103 105 103 116 121 134 136 137 136 138 139 142 145 143 141 139 137 135 134 135 132 127 125 124 123 123 123 125 123 127 136 140 142 142 139 139 135
120 96 201 242 288 297 229 131 120 136 140 137 125 107 125 136 136 137 134 133 132 134 137 139 145 146 145 144 142 141 139 137 136 134 132 130 127 126 128 131 130 127 133 143 145 145 143 141 139
151 100 296 263 249 272 185 105 127 148 132 127 125 134 156 163 139 131 128 128 130 132 136 138 142 142 144 148 148 146 142 139 138 140 140 140 138 135 134 138 140 137 133 137 139 144 144 146 140
126 90 246 235 216 242 121 89 61 92 106 114 119 143 154 148 138 130 126 125 133 139 144 141 137 139 142 148 150 151 149 149 145 147 151 149 149 151 150 150 151 150 148 147 144 143 142 135 127
123 176 235 230 217 228 190 162 176 110 107 98 96 115 136 142 140 140 144 145 148 154 158 155 149 146 148 152 147 153 155 157 155 158 160 157 161 169 167 166 165 163 162 162 157 152 154 147 123
184 208 242 261 247 212 209 226 209 137 144 151 146 148 150 148 149 151 155 157 159 159 157 157 159 154 155 148 148 152 153 157 162 167 169 165 165 173 170 163 170 172 173 163 162 159 156 151 141
250 259 246 255 262 238 210 209 148 160 180 164 154 154 154 153 159 161 160 159 157 155 158 155 154 152 157 147 153 153 155 159 167 175 172 162 158 157 161 167 169 171 168 149 141 141 145 149 153
256 263 267 261 260 237 198 181 159 166 152 143 145 150 156 159 162 161 157 157 156 157 159 159 155 155 154 147 162 157 163 168 171 170 174 170 161 165 172 172 174 179 165 154 145 140 146 135 141
253 277 285 281 267 235 190 221 139 176 148 147 152 158 165 165 161 153 152 156 160 160 161 160 157 158 157 155 160 164 167 164 163 164 171 167 160 163 165 169 177 186 175 163 146 148 147 142 142
280 317 310 285 262 237 143 293 202 178 155 155 161 163 165 166 161 162 164 163 162 162 159 156 158 157 157 155 166 165 163 157 153 157 165 159 155 156 158 162 169 185 166 144 128 120 108 115 119
350 344 297 285 263 246 143 226 229 178 158 161 167 168 169 171 170 169 164 159 157 154 153 157 159 158 157 156 163 161 156 152 151 152 156 156 157 156 151 155 164 164 144 127 128 116 107 107 120
350 279 270 289 270 243 154 215 226 185 165 168 171 172 170 170 169 167 163 160 157 155 154 158 154 157 157 155 149 143 144 151 156 152 152 158 156 151 147 155 155 143 134 133 140 123 131 129 137
243 250 266 270 277 246 226 227 221 198 175 173 173 167 164 169 176 168 161 157 152 151 154 156 153 154 148 138 125 120 121 135 145 154 160 162 158 149 142 143 143 131 126 125 125 122 119 141 156
239 262 273 274 273 245 237 229 229 210 182 173 167 163 166 171 168 155 147 148 144 147 152 155 155 157 150 147 148 150 153 151 148 157 157 157 156 152 143 145 142 138 138 150 142 130 112 113 107
255 267 275 286 283 257 234 236 224 205 186 174 169 170 168 159 155 154 147 148 154 159 161 156 160 162 161 162 159 156 149 154 161 157 152 155 150 155 156 150 154 153 139 133 138 129 131 146 117
257 245 253 262 296 330 139 300 276 256 189 168 168 171 168 167 164 158 151 159 162 167 165 163 165 165 162 153 137 121 98 79 95 148 179 173 155 153 149 152 152 154 146 151 158 147 150 167 203
249 249 249 256 280 284 150 238 272 232 179 180 177 168 168 166 161 160 159 162 167 167 161 157 160 160 161 157 157 155 156 163 188 183 175 158 148 146 148 149 151 154 155 158 172 165 165 153 178
227 246 246 251 236 296 316 155 276 299 193 212 189 173 169 168 164 162 164 165 160 156 155 150 150 153 157 161 164 165 162 163 152 145 147 152 146 145 148 144 148 157 164 167 159 146 148 160 174
227 290 349 26 70 290 250 165 265 253 213 204 189 169 164 164 159 157 154 147 140 143 148 147 147 155 158 156 157 164 163 156 151 154 164 174 173 184 159 141 144 165 177 176 171 163 154 165 168
154 100 31 351 357 247 257 152 237 262 216 189 178 165 156 154 150 150 150 150 152 154 156 157 151 159 163 158 158 162 163 165 171 170 174 168 173 196 200 175 168 178 186 176 160 157 171 176 176
208 151 163 195 221 268 331 184 243 268 97 143 148 144 140 143 147 153 160 160 162 162 162 161 161 164 167 166 165 161 158 158 162 164 165 173 182 198 195 177 179 176 169 172 166 167 191 179 189
179 191 173 151 194 193 284 274 313 23 68 92 116 117 126 138 145 151 157 158 160 160 161 166 169 170 174 173 161 155 155 152 151 154 150 160 172 181 181 186 181 183 179 179 167 177 204 185 196
158 163 96 119 156 228 266 221 220 224 128 95 123 134 144 142 148 155 156 155 151 151 150 161 166 173 174 169 165 159 156 159 157 154 156 161 178 183 179 196 191 185 188 189 172 194 219 207 225
108 105 111 133 156 160 223 260 220 188 172 149 152 156 152 154 155 155 150 150 149 145 145 145 154 149 152 158 154 150 152 162 157 168 181 179 180 185 188 196 188 185 193 195 187 217 226 221 238
164 166 143 154 225 167 170 254 273 169 155 139 132 135 141 151 155 152 146 143 146 150 151 155 158 157 164 167 157 159 161 163 165 184 195 188 189 197 199 189 179 183 183 184 187 210 222 218 229
Height
1503 1503 1502 1502 1504 1513 1515 1504 1494 1491 1490 1490 1489 1490 1494 1498 1504 1513 1511 1511 1512 1513 1513 1514 1515 1515 1516 1516 1516 1517 1517 1518 1518 1518 1518 1519 1519 1519 1519 1520 1520 1521 1522 1522 1523 1525 1525 1526 1527
1503 1503 1503 1503 1512 1525 1517 1500 1495 1491 1491 1491 1492 1493 1495 1501 1503 1506 1508 1512 1513 1513 1514 1515 1515 1516 1516 1517 1517 1518 1518 1519 1519 1519 1520 1520 1520 1520 1521 1521 1522 1522 1523 1524 1525 1526 1527 1528 1529
1503 1503 1504 1506 1515 1520 1512 1498 1493 1490 1490 1490 1493 1496 1499 1503 1505 1507 1509 1511 1513 1514 1515 1515 1516 1517 1517 1518 1518 1519 1519 1520 1520 1520 1521 1521 1521 1522 1522 1522 1523 1524 1524 1525 1526 1527 1528 1529 1530
1503 1504 1505 1511 1514 1506 1499 1494 1491 1492 1492 1492 1493 1499 1503 1506 1506 1507 1509 1512 1513 1514 1515 1516 1517 1518 1518 1519 1519 1520 1520 1521 1521 1521 1522 1522 1523 1523 1523 1524 1524 1525 1525 1526 1527 1528 1529 1530 1531
1503 1504 1510 1516 1510 1499 1493 1491 1490 1491 1492 1494 1494 1501 1506 1508 1507 1509 1510 1513 1514 1515 1516 1517 1518 1519 1519 1520 1520 1521 1521 1522 1522 1523 1523 1523 1524 1524 1525 1525 1525 1525 1526 1527 1527 1528 1530 1531 1532
1504 1505 1518 1521 1508 1497 1493 1490 1490 1492 1494 1495 1497 1502 1509 1510 1509 1510 1511 1513 1515 1516 1517 1518 1519 1520 1520 1521 1521 1522 1522 1523 1523 1524 1524 1524 1525 1525 1526 1526 1526 1526 1527 1527 1528 1529 1531 1532 1533
1505 1509 1516 1513 1507 1500 1493 1490 1490 1492 1493 1495 1496 1502 1509 1510 1510 1511 1513 1514 1516 1517 1518 1518 1519 1520 1521 1522 1522 1523 1523 1524 1524 1525 1525 1525 1526 1526 1527 1527 1527 1527 1527 1528 1529 1530 1531 1533 1534
1502 1507 1511 1509 1505 1500 1492 1491 1491 1491 1493 1495 1495 1499 1505 1508 1510 1512 1514 1515 1517 1518 1518 1519 1520 1521 1521 1522 1523 1523 1524 1524 1525 1525 1526 1526 1527 1527 1528 1528 1528 1528 1529 1529 1530 1531 1532 1533 1534
1500 1510 1515 1507 1501 1496 1490 1491 1492 1493 1493 1495 1496 1497 1500 1505 1509 1511 1513 1515 1517 1518 1519 1519 1520 1521 1522 1522 1523 1524 1525 1525 1526 1526 1526 1527 1528 1528 1528 1529 1529 1529 1530 1530 1531 1532 1533 1534 1534
1498 1511 1504 1495 1492 1491 1490 1490 1491 1493 1493 1495 1496 1499 1502 1505 1507 1509 1511 1513 1515 1517 1518 1519 1520 1521 1522 1522 1523 1524 1524 1525 1526 1526 1527 1527 1528 1529 1529 1529 1530 1530 1530 1531 1531 1532 1533 1534 1535
1495 1499 1493 1489 1488 1489 1489 1489 1489 1491 1494 1493 1494 1497 1501 1504 1506 1508 1510 1512 1514 1516 1518 1519 1520 1521 1522 1523 1523 1524 1524 1525 1525 1526 1527 1527 1528 1529 1529 1530 1530 1530 1530 1531 1531 1532 1533 1534 1535
1494 1491 1488 1486 1486 1486 1486 1487 1488 1488 1490 1490 1491 1495 1498 1502 1504 1507 1509 1511 1513 1515 1517 1518 1520 1521 1522 1523 1523 1524 1524 1525 1525 1526 1526 1527 1528 1528 1529 1530 1530 1530 1530 1531 1531 1532 1533 1534 1535
1491 1489 1485 1484 1484 1483 1483 1484 1486 1487 1488 1491 1493 1496 1498 1500 1503 1506 1508 1511 1512 1514 1515 1517 1519 1521 1522 1523 1523 1523 1524 1524 1525 1525 1526 1527 1527 1528 1529 1530 1530 1530 1530 1531 1531 1532 1533 1534 1535
1488 1486 1484 1482 1482 1481 1482 1483 1484 1486 1486 1489 1492 1495 1497 1499 1501 1504 1506 1508 1510 1512 1514 1516 1518 1520 1521 1522 1523 1523 1523 1524 1524 1525 1525 1526 1527 1528 1528 1529 1530 1530 1530 1531 1531 1532 1533 1534 1535
1486 1487 1484 1480 1479 1480 1481 1486 1483 1484 1485 1488 1490 1493 1496 1498 1499 1501 1503 1506 1508 1510 1512 1514 1516 1518 1520 1521 1522 1523 1523 1524 1524 1524 1525 1525 1526 1527 1528 1529 1529 1530 1530 1531 1531 1532 1533 1533 1535
1487 1491 1495 1483 1479 1478 1485 1494 1482 1482 1483 1487 1489 1492 1494 1496 1497 1499 1501 1504 1506 1508 1510 1512 1514 1517 1518 1519 1521 1521 1522 1523 1523 1524 1524 1525 1525 1526 1527 1528 1529 1529 1530 1531 1531 1532 1532 1533 1534
1496 1502 1498 1488 1476 1477 1482 1489 1480 1480 1482 1484 1487 1489 1492 1494 1496 1498 1499 1501 1504 1506 1508 1511 1513 1515 1516 1518 1519 1520 1521 1522 1522 1523 1523 1524 1525 1526 1526 1527 1528 1529 1530 1530 1531 1532 1533 1533 1534
1504 1500 1496 1491 1478 1477 1482 1483 1478 1478 1480 1481 1484 1487 1490 1491 1493 1496 1498 1500 1503 1505 1507 1509 1511 1513 1514 1516 1518 1519 1520 1521 1521 1522 1522 1523 1524 1525 1526 1527 1527 1528 1529 1530 1530 1531 1533 1533 1534
1492 1494 1495 1486 1476 1478 1481 1480 1477 1476 1478 1480 1482 1486 1488 1490 1492 1494 1497 1499 1501 1503 1505 1507 1509 1511 1513 1514 1516 1517 1518 1520 1520 1521 1522 1523 1524 1524 1525 1526 1527 1528 1528 1529 1530 1531 1532 1533 1534
1489 1494 1493 1484 1474 1476 1480 1479 1475 1474 1475 1477 1480 1483 1485 1488 1491 1493 1495 1498 1499 1501 1503 1505 1507 1509 1511 1513 1514 1516 1517 1518 1519 1520 1521 1522 1523 1523 1524 1525 1526 1527 1527 1528 1529 1530 1531 1532 1533
1487 1490 1488 1486 1477 1475 1480 1485 1480 1475 1475 1477 1479 1480 1483 1484 1487 1490 1492 1495 1497 1499 1501 1502 1504 1507 1510 1512 1514 1515 1516 1517 1518 1519 1520 1521 1522 1523 1523 1524 1525 1526 1527 1527 1528 1529 1530 1530 1531
1489 1478 1478 1479 1487 1494 1485 1504 1487 1478 1478 1477 1477 1479 1481 1483 1485 1487 1489 1491 1495 1497 1499 1501 1504 1506 1508 1510 1512 1512 1512 1513 1515 1517 1518 1520 1521 1521 1522 1523 1524 1525 1525 1526 1527 1528 1528 1529 1530
1476 1470 1473 1476 1484 1492 1489 1499 1494 1481 1482 1478 1476 1476 1478 1480 1482 1485 1486 1489 1492 1495 1497 1499 1502 1505 1507 1509 1510 1511 1512 1513 1514 1516 1517 1518 1519 1520 1521 1521 1522 1523 1524 1525 1525 1526 1527 1527 1528
1466 1471 1475 1483 1493 1505 1492 1497 1498 1485 1479 1476 1475 1475 1476 1479 1481 1484 1486 1488 1491 1494 1496 1499 1501 1503 1505 1507 1508 1509 1510 1511 1513 1514 1516 1517 1518 1519 1519 1520 1521 1521 1522 1523 1524 1524 1525 1525 1526
1468 1486 1505 1508 1514 1508 1488 1493 1496 1477 1471 1471 1471 1473 1475 1477 1480 1483 1485 1487 1489 1492 1495 1497 1500 1502 1504 1505 1506 1508 1509 1510 1511 1513 1514 1515 1516 1517 1518 1519 1520 1520 1521 1522 1522 1522 1523 1524 1524
1470 1481 1505 1515 1515 1505 1489 1495 1488 1473 1469 1469 1469 1471 1473 1475 1478 1481 1483 1485 1487 1490 1492 1495 1497 1500 1502 1503 1504 1506 1508 1509 1510 1511 1513 1514 1515 1516 1517 1518 1518 1519 1520 1520 1520 1520 1521 1522 1522
1469 1477 1478 1496 1497 1504 1499 1491 1481 1473 1471 1471 1471 1473 1474 1475 1477 1480 1482 1484 1486 1488 1491 1493 1495 1498 1500 1501 1503 1504 1506 1507 1508 1509 1511 1512 1513 1514 1515 1516 1516 1517 1518 1518 1518 1519 1519 1520 1520
1461 1467 1483 1495 1507 1510 1500 1495 1492 1480 1476 1474 1473 1473 1474 1475 1476 1478 1480 1482 1484 1487 1490 1492 1495 1496 1498 1500 1501 1503 1504 1506 1507 1508 1509 1510 1511 1513 1514 1514 1514 1515 1516 1516 1517 1517 1517 1518 1518
1465 1471 1479 1492 1496 1507 1509 1501 1474 1473 1472 1472 1473 1473 1474 1475 1476 1478 1479 1481 1484 1486 1489 1492 1493 1494 1497 1498 1500 1501 1502 1504 1505 1506 1507 1508 1509 1510 1511 1512 1512 1513 1513 1514 1515 1515 1515 1515 1515
1458 1466 1477 1492 1495 1496 1502 1497 1468 1467 1468 1470 1472 1474 1474 1475 1476 1477 1478 1481 1484 1486 1488 1490 1492 1493 1495 1497 1498 1500 1501 1502 1503 1504 1505 1506 1507 1508 1509 1510 1510 1511 1511 1512 1513 1513 1513 1513 1513